Lexington Weather

Lexington, Massachusetts, USA

42°F
4/22/2024 8:28am 
  • Lexington Conditions: Clear
  • Temperature: 42.3°F / 5.7°CWarmer 3.8°F than last hour.
  • Dew Point: 27.3°FDecreased 2.5°Fsince last hour.
  • Relative Humidity: 55%Decreased 16.0% since last hour.
  • Wind: Calm, 10-min avg: Calm, gust: None
  • Barometer: 29.95 in Steady
  • Visibility: 10 miles
  • Rain Today: 0.00 in
  •   

Regional Weather Roundup
for Boston, MA

        
000
ASUS41 KBOX 192210
RWRBOX

REGIONAL WEATHER ROUNDUP
NATIONAL WEATHER SERVICE BOSTON/NORTON MA
600 PM EDT FRI APR 19 2024

NOTE:  "FAIR" INDICATES FEW OR NO CLOUDS BELOW 12,000 FEET WITH NO 
SIGNIFICANT WEATHER AND/OR OBSTRUCTIONS TO VISIBILITY.

MAZALL-192300-
EASTERN MASSACHUSETTS
  
CITY           SKY/WX    TMP DP  RH WIND       PRES   REMARKS
BOSTON         PTSUNNY   53  38  56 SE17      30.06F                  
BEVERLY        SUNNY     50  36  58 SE13G23   30.06F                  
LAWRENCE       MOSUNNY   52  35  52 VRB7      30.06F                  
BEDFORD        SUNNY     57  34  41 S13G23    30.03F                  
NORWOOD        SUNNY     58  34  40 S15       30.06F                  
MARSHFIELD     SUNNY     52  36  54 SE12G21   30.08F                  
PLYMOUTH       SUNNY     53  32  44 S9G21     30.08F                  
TAUNTON        SUNNY     53  34  48 SE10G16   30.09F                  
NEW BEDFORD    SUNNY     52  40  63 SE10      30.10F                  
$$

MAZALL-192300-
CAPE COD AND THE ISLANDS
  
CITY           SKY/WX    TMP DP  RH WIND       PRES   REMARKS
FALMOUTH       SUNNY     48  36  61 SE16      30.13S                  
HYANNIS        SUNNY     47  37  68 SE8       30.09F                  
CHATHAM        SUNNY     47  38  71 SE8       30.12F                  
PROVINCETOWN   SUNNY     50  37  61 SE12      30.11F                  
NANTUCKET      SUNNY     46  38  73 SE13      30.11F                  
MARTHAS VNYRD  SUNNY     49  41  74 SE14      30.10F                  
$$
 
MAZALL-192300-
CENTRAL AND WESTERN MASSACHUSETTS
  
CITY           SKY/WX    TMP DP  RH WIND       PRES   REMARKS
WORCESTER      SUNNY     54  29  38 SW15G22   30.05R                  
FITCHBURG      SUNNY     59  32  36 S15G21    30.04S                  
ORANGE         MOSUNNY   57  31  37 S13       30.02S                  
SPRINGFIELD    PTSUNNY   56  30  37 SW17      30.02R                  
WESTFIELD      MOSUNNY   55  30  38 S12G22    30.04S                  
NORTH ADAMS    CLOUDY    57  33  40 SE10G28   29.97F                  
PITTSFIELD     CLOUDY    53  35  50 VRB6      29.98F                  
$$
 
RIZALL-192300-
RHODE ISLAND
  
CITY           SKY/WX    TMP DP  RH WIND       PRES   REMARKS
PROVIDENCE     PTSUNNY   50  36  58 S15       30.11S                  
NEWPORT        MOSUNNY   47  39  74 SE13G21   30.10S                  
BLOCK ISLAND   MOSUNNY   45  41  86 SE10      30.12S                  
SMITHFIELD     SUNNY     50  33  52 SW10G16   30.09S                  
WESTERLY       MOSUNNY   47  40  76 SE10      30.11F                  
$$
 
CTZALL-192300-
CONNECTICUT
  
CITY           SKY/WX    TMP DP  RH WIND       PRES   REMARKS
BRADLEY INTL   CLOUDY    56  32  40 S21G26    30.06S                  
HARTFORD       MOSUNNY   54  35  48 S15G24    30.08S                  
PLAINVILLE     CLOUDY    53  39  59 S14       30.06F                  
BRIDGEPORT     PTSUNNY   50  44  80 E13       30.08F                  
DANBURY        PTSUNNY   54  40  59 SE12G21   30.06F                  
GROTON         MOSUNNY   49  42  77 SE7       30.11S                  
NEW HAVEN      MOSUNNY   52  42  69 E13       30.09F                  
CHESTER        MOSUNNY   50  39  66 SE8       30.10F                  
MERIDEN        MOSUNNY   53  38  56 S10       30.08F                  
WILLIMANTIC    MOSUNNY   52  32  46 S13G21    30.10R                  
OXFORD         MOSUNNY   50  40  68 SE14      30.07F                  
$$

MEZ002-015-021-024-NHZ003-005-008-011-012-014-VTZ005-008-192300-
NORTHERN NEW ENGLAND
  
CITY           SKY/WX    TMP DP  RH WIND       PRES   REMARKS
PORTLAND ME    PTSUNNY   47  37  68 S13       30.07F                  
BANGOR ME      PTSUNNY   50  31  48 S15       30.07S                  
CONCORD NH     SUNNY     54  35  48 SE9G20    30.02S                  
MANCHESTER NH  PTSUNNY   55  37  50 SE17G23   30.01F                  
NASHUA NH      PTSUNNY   56  38  50 SE10G18   30.04S                  
PORTSMOUTH NH  PTSUNNY   49  36  59 SE13      30.06F                  
JAFFREY NH     MOSUNNY   58  34  40 S9G22     30.01R                  
KEENE NH       MOSUNNY   59  33  37 S16G25    29.97F                  
BURLINGTON VT  LGT RAIN  59  40  49 SW14G24   29.86F                  
MT. WASHINGTON PTSUNNY   34  32  93 SW30G37     N/A  WCI  20          
$$

NYZ052-076-192300-
EASTERN NEW YORK
  
CITY           SKY/WX    TMP DP  RH WIND       PRES   REMARKS
ALBANY         CLOUDY    58  39  49 S14G24    29.96S                  
NEW YORK CITY  PTSUNNY   52  41  66 SE10      30.06F                  
$$
 
ANZALL-192300-
MARINE OBSERVATIONS
  
STATION/POSITION TIME  TEMP    WIND        PRES    VSBY  WAVE
                       AIR SEA DIR/SP/G                  HT/PER
                 (UTC) (F)     (DEG/KT/KT) (MB)    (MI)  (FT/S)
BOSTON BUOY      2150   47     130/ 16/ 17 1018.2F         2/10
BUZZARDS BAY     2100   45     120/ 16/ 17 1019.9F
NANTUCKET SOUND  2150   46 47  110/ 10/ 12 1019.3F         1/ 3
MASS BAY-STELLWA 2004   46 46  140/ 14/ 17 1020.2F  1 7/8  2/ 3
ISLE OF SHOALS   2100   46     140/ 21/ 22 1018.0F
S OF BLOCK IS    2156      45                N/A           6/ 8
$$

......................KEY.........................
  SKY/WX - SKY CONDITION/PRESENT WEATHER
  TMP    - TEMPERATURE IN FAHRENHEIT
  DWPT   - DEWPOINT IN FAHRENHEIT
  RH     - RELATIVE HUMIDITY IN PERCENT
  WIND   - DIRECTION AND SPEED IN MPH
  PRES   - MEAN SEA LEVEL PRESSURE IN INCHES OF HG
  WCI    - WIND CHILL INDEX
  VSB    - VISIBILITY IN MILES
  HX     - HEAT INDEX
  TC     - TEMPERATURE IN CELSIUS
  VRB    - VARIABLE WIND DIRECTION
  N/A    - NOT AVAILABLE
  
      

Other recent Regional Weather Roundups

Mon Apr 22, 8:10am EDT

Mon Apr 22, 7:10am EDT

Mon Apr 22, 6:10am EDT

Mon Apr 22, 5:10am EDT

Mon Apr 22, 4:10am EDT

Mon Apr 22, 3:10am EDT

Mon Apr 22, 2:10am EDT

Mon Apr 22, 1:10am EDT

Mon Apr 22, 12:10am EDT

Sun Apr 21, 11:10pm EDT

Sun Apr 21, 10:10pm EDT

Sun Apr 21, 9:10pm EDT

Sun Apr 21, 8:10pm EDT

Sun Apr 21, 7:10pm EDT

Sun Apr 21, 6:10pm EDT

Sun Apr 21, 5:10pm EDT

Sun Apr 21, 4:10pm EDT

Sun Apr 21, 3:10pm EDT

Sun Apr 21, 2:10pm EDT

Sun Apr 21, 1:10pm EDT

Sun Apr 21, 12:10pm EDT

Sun Apr 21, 11:10am EDT

Sun Apr 21, 10:10am EDT

Sun Apr 21, 9:10am EDT

Sun Apr 21, 8:10am EDT

Sun Apr 21, 7:10am EDT

Sun Apr 21, 6:10am EDT

Sun Apr 21, 5:10am EDT

Sun Apr 21, 4:10am EDT

Sun Apr 21, 3:10am EDT

Sun Apr 21, 2:10am EDT

Sun Apr 21, 1:10am EDT

Sun Apr 21, 12:10am EDT

Sat Apr 20, 11:10pm EDT

Sat Apr 20, 10:10pm EDT

Sat Apr 20, 9:10pm EDT

Sat Apr 20, 8:10pm EDT

Sat Apr 20, 7:10pm EDT

Sat Apr 20, 6:10pm EDT

Sat Apr 20, 5:10pm EDT

Sat Apr 20, 4:10pm EDT

Sat Apr 20, 3:10pm EDT

Sat Apr 20, 2:10pm EDT

Sat Apr 20, 1:10pm EDT

Sat Apr 20, 12:10pm EDT

Sat Apr 20, 11:10am EDT

Sat Apr 20, 10:10am EDT

Sat Apr 20, 9:10am EDT

Sat Apr 20, 8:10am EDT

Sat Apr 20, 7:10am EDT

Sat Apr 20, 6:10am EDT

Sat Apr 20, 5:10am EDT

Sat Apr 20, 4:10am EDT

Sat Apr 20, 3:10am EDT

Sat Apr 20, 2:10am EDT

Sat Apr 20, 1:10am EDT

Sat Apr 20, 12:10am EDT

Fri Apr 19, 11:10pm EDT

Fri Apr 19, 10:10pm EDT

Fri Apr 19, 9:10pm EDT

Fri Apr 19, 8:10pm EDT

Fri Apr 19, 7:10pm EDT

Fri Apr 19, 5:10pm EDT

Fri Apr 19, 4:10pm EDT

Fri Apr 19, 3:10pm EDT

Fri Apr 19, 2:10pm EDT

Fri Apr 19, 1:10pm EDT

Fri Apr 19, 12:10pm EDT

Fri Apr 19, 11:10am EDT

Fri Apr 19, 10:10am EDT

Fri Apr 19, 9:10am EDT

Fri Apr 19, 8:10am EDT

Fri Apr 19, 7:10am EDT

Fri Apr 19, 6:10am EDT

Fri Apr 19, 5:10am EDT

Fri Apr 19, 4:10am EDT

Fri Apr 19, 3:10am EDT

Fri Apr 19, 2:10am EDT

Fri Apr 19, 1:10am EDT

Fri Apr 19, 12:10am EDT

Thu Apr 18, 11:10pm EDT

Thu Apr 18, 10:10pm EDT

Thu Apr 18, 9:10pm EDT

Thu Apr 18, 8:10pm EDT

Thu Apr 18, 7:10pm EDT

Thu Apr 18, 6:10pm EDT

Thu Apr 18, 5:10pm EDT

Thu Apr 18, 4:10pm EDT

Thu Apr 18, 3:10pm EDT

Thu Apr 18, 2:10pm EDT

Thu Apr 18, 1:10pm EDT

Thu Apr 18, 12:10pm EDT

Thu Apr 18, 11:10am EDT

Thu Apr 18, 10:10am EDT

Thu Apr 18, 9:10am EDT

Thu Apr 18, 8:10am EDT

Thu Apr 18, 7:10am EDT

Thu Apr 18, 6:10am EDT

Thu Apr 18, 5:10am EDT

Thu Apr 18, 4:10am EDT

Thu Apr 18, 3:10am EDT

Thu Apr 18, 2:10am EDT

Thu Apr 18, 1:10am EDT

Thu Apr 18, 12:10am EDT

Wed Apr 17, 11:10pm EDT

Wed Apr 17, 10:10pm EDT

Wed Apr 17, 9:10pm EDT

Wed Apr 17, 8:10pm EDT

Wed Apr 17, 7:10pm EDT

Wed Apr 17, 6:10pm EDT

Wed Apr 17, 5:10pm EDT

Wed Apr 17, 4:10pm EDT

Wed Apr 17, 3:10pm EDT

Wed Apr 17, 2:10pm EDT

Wed Apr 17, 1:10pm EDT

Wed Apr 17, 12:10pm EDT

Wed Apr 17, 11:10am EDT

Wed Apr 17, 10:10am EDT

Wed Apr 17, 9:10am EDT

Wed Apr 17, 8:10am EDT

Wed Apr 17, 7:10am EDT

Wed Apr 17, 6:10am EDT

Wed Apr 17, 5:10am EDT

Wed Apr 17, 4:10am EDT

Wed Apr 17, 3:10am EDT

Wed Apr 17, 2:10am EDT

Wed Apr 17, 1:10am EDT

Wed Apr 17, 12:10am EDT

Tue Apr 16, 11:10pm EDT

Tue Apr 16, 10:10pm EDT

Tue Apr 16, 9:10pm EDT

Tue Apr 16, 8:10pm EDT

Tue Apr 16, 7:10pm EDT

Tue Apr 16, 6:10pm EDT

Tue Apr 16, 5:10pm EDT

Tue Apr 16, 4:10pm EDT

Tue Apr 16, 3:10pm EDT

Tue Apr 16, 2:10pm EDT

Tue Apr 16, 1:10pm EDT

Tue Apr 16, 12:10pm EDT

Tue Apr 16, 11:10am EDT

Tue Apr 16, 10:10am EDT

Tue Apr 16, 9:10am EDT

Tue Apr 16, 8:10am EDT

Tue Apr 16, 7:10am EDT

Tue Apr 16, 6:10am EDT

Tue Apr 16, 5:10am EDT

Tue Apr 16, 4:10am EDT

Tue Apr 16, 3:10am EDT

Tue Apr 16, 2:10am EDT

Tue Apr 16, 1:10am EDT

Tue Apr 16, 12:10am EDT

Mon Apr 15, 11:10pm EDT

Mon Apr 15, 10:10pm EDT

Mon Apr 15, 9:10pm EDT

Mon Apr 15, 8:10pm EDT

Mon Apr 15, 7:10pm EDT

Mon Apr 15, 6:10pm EDT

Mon Apr 15, 5:10pm EDT

Mon Apr 15, 4:10pm EDT

Mon Apr 15, 3:10pm EDT

Mon Apr 15, 2:10pm EDT

Mon Apr 15, 1:10pm EDT

Mon Apr 15, 12:10pm EDT

Mon Apr 15, 11:10am EDT

Mon Apr 15, 10:10am EDT

Mon Apr 15, 9:10am EDT